This is the latest recevied weather packets stored in our database for station/object AI5BL. If no packets are shown the sender has not sent any weather packets the latest 10 day(s).
| Time | Temp. | Humidity | Pressure | Rain* | Wind** | Luminosity | Snow |
|---|---|---|---|---|---|---|---|
| 1778157661 | 17.78° C | 99% | 1016.1 hPa | 0 mm | - | 25 W/m² | - |
| 1778157359 | 17.78° C | 99% | 1016.2 hPa | 0 mm | - | 23 W/m² | - |
| 1778157055 | 17.78° C | 99% | 1016.1 hPa | 0 mm | - | 33 W/m² | - |
| 1778156751 | 17.78° C | 99% | 1015.8 hPa | 0 mm | - | 22 W/m² | - |
| 1778156447 | 17.78° C | 99% | 1015.6 hPa | 0 mm | - | 15 W/m² | - |
| 1778156143 | 17.78° C | 99% | 1015.8 hPa | 0 mm | - | 18 W/m² | - |
| 1778155839 | 17.78° C | 99% | 1015.5 hPa | 0 mm | - | 16 W/m² | - |
| 1778155535 | 18.33° C | 99% | 1015.3 hPa | 0 mm | - | 21 W/m² | - |
| 1778155232 | 17.78° C | 99% | 1015.4 hPa | 0 mm | - | 12 W/m² | - |
| 1778154928 | 18.33° C | 99% | 1015.1 hPa | 0 mm | - | 7 W/m² | - |
| 1778154624 | 18.33° C | 99% | 1015.2 hPa | 0 mm | - | 6 W/m² | - |
| 1778154320 | 18.33° C | 99% | 1015.1 hPa | 0 mm | - | 5 W/m² | - |
| 1778154018 | 18.33° C | 99% | 1015.4 hPa | 0 mm | - | 4 W/m² | - |
| 1778153715 | 18.89° C | 99% | 1015.1 hPa | 0 mm | - | 2 W/m² | - |
| 1778153412 | 18.89° C | 99% | 1014.8 hPa | 0 mm | - | 2 W/m² | - |
| 1778153109 | 18.89° C | 99% | 1014.6 hPa | 0 mm | - | 2 W/m² | - |
| 1778152806 | 19.44° C | 99% | 1014.8 hPa | 0 mm | - | 1 W/m² | - |
| 1778152503 | 19.44° C | 99% | 1014.6 hPa | 0 mm | - | 1 W/m² | - |
| 1778152199 | 19.44° C | 99% | 1014.3 hPa | 0 mm | - | 1 W/m² | - |
| 1778151896 | 19.44° C | 99% | 1014.3 hPa | 0 mm | - | 0 W/m² | - |
| 1778151592 | 19.44° C | 99% | 1014 hPa | 0 mm | - | 0 W/m² | - |
| 1778151289 | 20° C | 99% | 1014.1 hPa | 0 mm | - | 0 W/m² | - |
| 1778150986 | 20° C | 99% | 1013.7 hPa | 0 mm | - | 0 W/m² | - |
| 1778150683 | 20° C | 99% | 1013.8 hPa | 0 mm | - | 0 W/m² | - |
| 1778150378 | 20° C | 99% | 1013.6 hPa | 0 mm | - | 0 W/m² | - |
* Rain latest hour (hover to see other rain measurements)
** Current wind speed in m/s (hover to see current wind gust speed)